When you browse on this site, cookies collect data to enhance your experience and personalize the content and advertising you see.
Visit our Privacy Policy to learn more. By continuing to use the site, you agree to this use of cookies and data.
  • En España
  • Lista de países
  • Para 7 días
  • Temperatura del agua
  • El tiempo en el mapa
  • Informadores
  • user-avatar
    Iniciar sesión

    Tiempo cada hora Biskira

    Hoy, 1 Junio, Lunes

    Tiempo Temperatura Precipitaciones Viento Presión Humedad
    00:00 +30°C° 0 mm 4 mps 749 mmHg 42%
    01:00 +29°C° 0 mm 4 mps 749 mmHg 43%
    02:00 +29°C° 0 mm 4 mps 749 mmHg 44%
    03:00 +28°C° 0 mm 4 mps 749 mmHg 45%
    04:00 +28°C° 0 mm 4 mps 749 mmHg 46%
    05:00 +28°C° 0 mm 5 mps 749 mmHg 47%
    06:00 +27°C° 0 mm 5 mps 749 mmHg 47%
    07:00 +29°C° 0 mm 5 mps 750 mmHg 44%
    08:00 +30°C° 0 mm 4 mps 750 mmHg 40%
    09:00 +32°C° 0 mm 4 mps 750 mmHg 36%
    10:00 +33°C° 0 mm 4 mps 750 mmHg 34%
    11:00 +34°C° 0 mm 3 mps 750 mmHg 32%
    12:00 +35°C° 0 mm 3 mps 749 mmHg 30%
    13:00 +36°C° 0 mm 2 mps 749 mmHg 29%
    14:00 +36°C° 0 mm 2 mps 749 mmHg 27%
    15:00 +36°C° 0 mm 1 mps 749 mmHg 26%
    16:00 +36°C° 0 mm 1 mps 749 mmHg 25%
    17:00 +36°C° 0 mm 1 mps 749 mmHg 25%
    18:00 +37°C° 0 mm 2 mps 748 mmHg 24%
    19:00 +36°C° 0 mm 2 mps 749 mmHg 26%
    20:00 +35°C° 0 mm 1 mps 750 mmHg 28%
    21:00 +34°C° 0 mm 1 mps 751 mmHg 30%
    22:00 +34°C° 0 mm 3 mps 750 mmHg 34%
    23:00 +32°C° 0 mm 4 mps 750 mmHg 38%

    Mañana, 2 Junio, Martes

    Tiempo Temperatura Precipitaciones Viento Presión Humedad
    00:00 +30°C° 0 mm 5 mps 750 mmHg 42%
    01:00 +29°C° 0 mm 5 mps 750 mmHg 43%
    02:00 +28°C° 0 mm 4 mps 750 mmHg 44%
    03:00 +28°C° 0 mm 3 mps 750 mmHg 45%
    04:00 +27°C° 0 mm 3 mps 751 mmHg 46%
    05:00 +27°C° 0 mm 3 mps 751 mmHg 47%
    06:00 +27°C° 0 mm 3 mps 751 mmHg 47%
    07:00 +28°C° 0 mm 3 mps 751 mmHg 45%
    08:00 +28°C° 0 mm 3 mps 751 mmHg 43%
    09:00 +29°C° 0 mm 3 mps 752 mmHg 41%
    10:00 +30°C° 0 mm 3 mps 751 mmHg 38%
    11:00 +33°C° 0 mm 3 mps 751 mmHg 36%
    12:00 +34°C° 0 mm 2 mps 750 mmHg 33%
    13:00 +34°C° 0 mm 2 mps 750 mmHg 31%
    14:00 +35°C° 0 mm 2 mps 749 mmHg 29%
    15:00 +35°C° 0 mm 1 mps 749 mmHg 27%
    16:00 +36°C° 0 mm 2 mps 749 mmHg 27%
    17:00 +36°C° 0 mm 2 mps 749 mmHg 27%
    18:00 +36°C° 0 mm 3 mps 749 mmHg 27%
    19:00 +35°C° 0 mm 2 mps 749 mmHg 32%
    20:00 +32°C° 0 mm 2 mps 749 mmHg 37%
    21:00 +30°C° 0 mm 2 mps 750 mmHg 42%
    22:00 +30°C° 0 mm 2 mps 749 mmHg 42%
    23:00 +31°C° 0 mm 1 mps 749 mmHg 42%

    Pasado mañana, 3 Junio, Miércoles

    Tiempo Temperatura Precipitaciones Viento Presión Humedad
    00:00 +31°C° 0 mm 1 mps 749 mmHg 42%
    01:00 +30°C° 0 mm 1 mps 748 mmHg 42%
    02:00 +30°C° 0 mm 2 mps 748 mmHg 42%
    03:00 +29°C° 0 mm 3 mps 748 mmHg 42%
    04:00 +29°C° 0 mm 3 mps 748 mmHg 40%
    05:00 +29°C° 0 mm 4 mps 748 mmHg 38%
    06:00 +29°C° 0 mm 4 mps 748 mmHg 35%
    07:00 +30°C° 0 mm 4 mps 748 mmHg 34%
    08:00 +32°C° 0 mm 4 mps 748 mmHg 32%
    09:00 +33°C° 0 mm 3 mps 748 mmHg 30%
    10:00 +34°C° 0 mm 3 mps 748 mmHg 29%
    11:00 +35°C° 0 mm 2 mps 748 mmHg 28%
    12:00 +36°C° 0 mm 2 mps 747 mmHg 26%
    13:00 +37°C° 0 mm 2 mps 747 mmHg 25%
    14:00 +37°C° 0 mm 2 mps 747 mmHg 24%
    15:00 +37°C° 0 mm 1 mps 746 mmHg 23%
    16:00 +38°C° 0.2 mm 2 mps 746 mmHg 24%
    17:00 +37°C° 0.2 mm 2 mps 746 mmHg 24%
    18:00 +37°C° 0.2 mm 2 mps 746 mmHg 25%
    19:00 +36°C° 0.1 mm 2 mps 746 mmHg 27%
    20:00 +36°C° 0.1 mm 2 mps 747 mmHg 29%
    21:00 +35°C° 0.1 mm 2 mps 747 mmHg 31%
    22:00 +35°C° 0 mm 2 mps 747 mmHg 31%
    23:00 +34°C° 0 mm 2 mps 747 mmHg 32%

    4 Junio, Jueves

    Tiempo Temperatura Precipitaciones Viento Presión Humedad
    00:00 +34°C° 0 mm 2 mps 747 mmHg 33%
    01:00 +33°C° 0 mm 3 mps 747 mmHg 35%
    02:00 +32°C° 0 mm 4 mps 747 mmHg 36%
    03:00 +30°C° 0 mm 5 mps 746 mmHg 38%
    04:00 +30°C° 0 mm 5 mps 747 mmHg 37%
    05:00 +30°C° 0 mm 5 mps 747 mmHg 36%
    06:00 +30°C° 0 mm 5 mps 747 mmHg 35%
    07:00 +33°C° 0 mm 6 mps 747 mmHg 31%
    08:00 +34°C° 0 mm 7 mps 747 mmHg 28%
    09:00 +36°C° 0 mm 7 mps 747 mmHg 24%
    10:00 +38°C° 0 mm 8 mps 747 mmHg 22%
    11:00 +40°C° 0 mm 8 mps 746 mmHg 20%
    12:00 +41°C° 0 mm 8 mps 746 mmHg 17%
    13:00 +43°C° 0 mm 8 mps 745 mmHg 17%
    14:00 +43°C° 0 mm 8 mps 745 mmHg 16%
    15:00 +44°C° 0 mm 8 mps 744 mmHg 15%
    16:00 +44°C° 0 mm 7 mps 744 mmHg 15%
    17:00 +44°C° 0 mm 7 mps 743 mmHg 15%
    18:00 +42°C° 0 mm 6 mps 743 mmHg 14%
    19:00 +43°C° 0 mm 7 mps 744 mmHg 15%
    20:00 +41°C° 0 mm 7 mps 744 mmHg 15%
    21:00 +40°C° 0 mm 8 mps 745 mmHg 16%
    22:00 +39°C° 0 mm 8 mps 745 mmHg 19%
    23:00 +38°C° 0 mm 8 mps 745 mmHg 22%

    5 Junio, Viernes

    Tiempo Temperatura Precipitaciones Viento Presión Humedad
    00:00 +35°C° 0 mm 8 mps 745 mmHg 25%
    01:00 +34°C° 0 mm 6 mps 745 mmHg 26%
    02:00 +33°C° 0 mm 5 mps 745 mmHg 28%
    03:00 +32°C° 0 mm 4 mps 745 mmHg 30%
    04:00 +31°C° 0 mm 3 mps 746 mmHg 29%
    05:00 +31°C° 0 mm 3 mps 746 mmHg 28%
    06:00 +33°C° 0 mm 3 mps 746 mmHg 28%
    07:00 +34°C° 0 mm 3 mps 746 mmHg 25%
    08:00 +35°C° 0 mm 3 mps 747 mmHg 23%
    09:00 +37°C° 0 mm 3 mps 747 mmHg 21%
    10:00 +38°C° 0 mm 3 mps 747 mmHg 19%
    11:00 +39°C° 0 mm 3 mps 746 mmHg 18%
    12:00 +40°C° 0 mm 3 mps 746 mmHg 16%
    13:00 +42°C° 0 mm 3 mps 746 mmHg 15%
    14:00 +42°C° 0 mm 3 mps 745 mmHg 14%
    15:00 +42°C° 0 mm 2 mps 745 mmHg 12%
    16:00 +42°C° 0 mm 2 mps 745 mmHg 12%
    17:00 +42°C° 0 mm 2 mps 745 mmHg 12%
    18:00 +42°C° 0 mm 2 mps 745 mmHg 11%
    19:00 +40°C° 0 mm 2 mps 746 mmHg 12%
    20:00 +39°C° 0 mm 2 mps 746 mmHg 14%
    21:00 +38°C° 0 mm 2 mps 747 mmHg 15%
    22:00 +37°C° 0 mm 3 mps 747 mmHg 18%
    23:00 +36°C° 0 mm 5 mps 747 mmHg 20%

    6 Junio, Sábado

    Tiempo Temperatura Precipitaciones Viento Presión Humedad
    00:00 +35°C° 0 mm 6 mps 748 mmHg 23%
    01:00 +34°C° 0 mm 6 mps 748 mmHg 24%
    02:00 +34°C° 0 mm 5 mps 748 mmHg 25%
    03:00 +33°C° 0 mm 5 mps 748 mmHg 26%
    04:00 +33°C° 0 mm 6 mps 748 mmHg 27%
    05:00 +33°C° 0 mm 6 mps 749 mmHg 28%
    06:00 +33°C° 0 mm 7 mps 749 mmHg 29%
    07:00 +34°C° 0 mm 7 mps 750 mmHg 26%
    08:00 +36°C° 0 mm 6 mps 750 mmHg 23%
    09:00 +39°C° 0 mm 6 mps 750 mmHg 20%
    10:00 +39°C° 0 mm 6 mps 750 mmHg 18%
    11:00 +40°C° 0 mm 6 mps 750 mmHg 16%
    12:00 +41°C° 0 mm 5 mps 750 mmHg 15%
    13:00 +41°C° 0 mm 6 mps 749 mmHg 15%
    14:00 +41°C° 0 mm 6 mps 749 mmHg 15%
    15:00 +41°C° 0 mm 6 mps 749 mmHg 15%
    16:00 +41°C° 0 mm 5 mps 749 mmHg 16%
    17:00 +40°C° 0 mm 4 mps 748 mmHg 17%
    18:00 +39°C° 0 mm 2 mps 748 mmHg 18%
    19:00 +38°C° 0 mm 2 mps 749 mmHg 19%
    20:00 +38°C° 0 mm 2 mps 749 mmHg 20%
    21:00 +37°C° 0 mm 2 mps 749 mmHg 21%
    22:00 +37°C° 0 mm 2 mps 749 mmHg 21%
    23:00 +36°C° 0 mm 3 mps 749 mmHg 22%
    Mostrar más